x

Superior Grand Traverse Bay, Mi (gtrm4) Weather Station

4:00am - Mon 26th Jan 2015 All times are CST. -6 hours from GMT.

  • Wind
    2mph, 3mph gusts
  • Air Temp 10°f
  • Sea Pressure 1012.5mb
  • Superior Grand Traverse Bay, Mi
  • Superior Grand Traverse Bay, Mi

More Historic Weather Station data

Upgrade to MSW Pro to gain access to the past 30 days of data for over 8000 Wavebouys and Weather Stations around the globe.

Join Pro

Comparision Forecast

View Surf forecast
   
Mon 01/26 4:00am 2 3 mph 1012.5mb 10f
3:50am 2 3 mph 1012.9mb 10f
3:40am 2 3 mph 1012.9mb 10f
3:30am 2 3 mph 1013.2mb 10f
3:20am 3 6 mph 1013.2mb 10f
3:10am 3 6 mph 1013.5mb 10f
3:00am 3 6 mph 1013.5mb 10f
2:50am 5 6 mph 1013.5mb 9f
2:40am 5 6 mph 1013.5mb 9f
2:30am 6
mph
1013.5mb 9f
2:20am 5 6 mph 1013.5mb 8f
2:10am 5
mph
1013.9mb 8f
2:00am 3 5 mph 1013.9mb 8f
1:50am 5 6 mph 1014.2mb 7f
1:40am 5 7 mph 1014.2mb 8f
1:30am 5 7 mph 1014.2mb 7f
1:20am 5 6 mph 1014.2mb 6f
1:10am 5 6 mph 1014.6mb 6f
1:00am 5
mph
1014.6mb 6f
12:50am 5 6 mph 1014.9mb 8f
12:40am 6
mph
1014.9mb 7f
12:30am 5 6 mph 1014.9mb 8f
12:20am 5 6 mph 1014.9mb 6f
12:10am 6 7 mph 1015.2mb 6f
12:00am 6 7 mph 1015.6mb 5f
Sun 01/25 11:50pm 6
mph
1015.6mb 4f
11:40pm 5 7 mph 1015.6mb 5f
11:30pm 6 7 mph 1015.6mb 5f
11:20pm 5 7 mph 1015.6mb 5f
11:10pm 6
mph
1015.6mb 5f
11:00pm 6 7 mph 1015.9mb 4f
10:50pm 7
mph
1015.9mb 4f
10:40pm 6
mph
1016.3mb 3f
10:30pm 5 7 mph 1016.6mb 4f
10:20pm 6 7 mph 1016.9mb 4f
10:10pm 6 7 mph 1016.9mb 2f
10:00pm 5 6 mph 1016.6mb 3f
9:50pm 5 7 mph 1016.9mb 1f
9:40pm 6
mph
1016.6mb 2f
9:30pm 5 6 mph 1016.6mb 1f
9:20pm 5 6 mph 1016.6mb 1f
9:10pm 3 5 mph 1016.6mb 2f
9:00pm 2 3 mph 1016.6mb 2f
8:50pm 3 5 mph 1016.9mb 1f
8:40pm 3
mph
1017.3mb 2f
8:30pm 2
mph
1017.6mb 3f
8:20pm  -  2 mph 1017.9mb 2f
8:10pm  -  2 mph 1018.3mb 5f
8:00pm 1 2 mph 1018.6mb 6f
7:50pm 2 3 mph 1019mb 8f
7:40pm 2 5 mph 1019.3mb 8f
7:30pm 5 6 mph 1019.3mb 8f
7:20pm 6 7 mph 1019.6mb 7f
7:10pm 6 7 mph 1019.6mb 7f
7:00pm 6 7 mph 1019.6mb 6f
6:50pm 6
mph
1019.6mb 6f
6:40pm 5
mph
1019.3mb 6f
6:30pm 3 5 mph 1019.3mb 6f
6:20pm 3
mph
1019.3mb 8f
6:10pm 3 5 mph 1019mb 8f
6:00pm 5
mph
1019mb 8f
5:50pm 3
mph
1019mb 9f
5:40pm 2 3 mph 1019mb 10f
5:30pm 2
mph
1018.6mb 11f
5:20pm 1 2 mph 1018.6mb 11f
5:10pm 1 2 mph 1018.3mb 13f
5:00pm  -  1 mph 1018.3mb 15f
4:50pm  -  3 mph 1018.3mb 15f
4:40pm  -  mph 1018.3mb 16f
4:30pm  -  mph 1018.3mb 17f
4:20pm 1 5 mph 1018.6mb 18f
4:10pm 5 7 mph 1018.3mb 18f
4:00pm 3 7 mph 1018.3mb 18f
3:50pm 5 7 mph 1018.6mb 18f
3:40pm 3 6 mph 1018.6mb 19f
3:30pm 2 3 mph 1019mb 20f
3:20pm  -  5 mph 1019mb 19f
3:10pm 5 6 mph 1019mb 18f
3:00pm 1 6 mph 1019mb 18f
2:50pm 3 5 mph 1019mb 18f
2:40pm 2 8 mph 1019mb 18f
2:30pm 3 8 mph 1019.3mb 18f
2:20pm 5 9 mph 1019mb 19f
2:10pm 3 5 mph 1019mb 19f
2:00pm 3 5 mph 1019mb 19f
1:50pm 1 3 mph 1019mb 18f
1:40pm 3 6 mph 1019.3mb 18f
1:30pm 2 7 mph 1019.3mb 18f
1:20pm 5 7 mph 1019.3mb 17f
1:10pm 3 7 mph 1019.3mb 19f
1:00pm 3 8 mph 1019.3mb 20f
12:50pm 7 10 mph 1019.3mb 18f
12:40pm 7 11 mph 1019.3mb 18f
12:30pm 9 11 mph 1019.3mb 18f
12:20pm 6 10 mph 1019.3mb 18f
12:10pm 7 15 mph 1019.6mb 18f
12:00pm 9 13 mph 1019.6mb 18f
11:50am 7 13 mph 1019.6mb 17f
11:40am 6 11 mph 1019.6mb 18f
11:30am 7 14 mph 1019.6mb 18f
11:20am 10 14 mph 1019.3mb 18f
11:10am 7 13 mph 1019.3mb 18f
11:00am 9 14 mph 1019.3mb 17f
10:50am 8 11 mph 1019.3mb 17f
10:40am 7 9 mph 1019.3mb 17f
10:30am 6 11 mph 1019.3mb 17f
10:20am 8 11 mph 1019mb 16f
10:10am 8 10 mph 1019mb 16f
10:00am 9 15 mph 1018.6mb 16f
9:50am 9 17 mph 1018.3mb 16f
9:40am 14 18 mph 1018.3mb 17f
9:30am 11 16 mph 1018.3mb 16f
9:20am 11 15 mph 1018.3mb 16f
9:10am 10 16 mph 1017.9mb 16f
9:00am 9 14 mph 1017.9mb 15f
8:50am 9 14 mph 1017.6mb 15f
8:40am 9 13 mph 1017.6mb 15f
8:30am 7 15 mph 1017.6mb 15f
8:20am 9 14 mph 1017.6mb 14f
8:10am 7 10 mph 1017.6mb 15f
8:00am 7 13 mph 1017.9mb 14f
7:50am 7 9 mph 1017.9mb 14f
7:40am 8 13 mph 1017.6mb 14f
7:30am 6 10 mph 1017.6mb 14f
7:20am 7 9 mph 1017.6mb 14f
7:10am 5 7 mph 1017.6mb 14f
7:00am 5 8 mph 1017.6mb 14f
6:50am 6 9 mph 1017.3mb 14f
6:40am 8 14 mph 1017.3mb 14f
6:30am 13 16 mph 1017.3mb 15f
6:20am 14 18 mph 1016.9mb 16f
6:10am 11 14 mph 1016.9mb 16f
6:00am 13 16 mph 1016.9mb 15f
5:50am 9 13 mph 1016.6mb 15f
5:40am 6 13 mph 1016.6mb 15f
5:30am 10 18 mph 1016.3mb 15f
5:20am 8 14 mph 1016.3mb 16f
5:10am 7 18 mph 1016.3mb 15f
5:00am 13 16 mph 1016.3mb 16f
4:50am 11 18 mph 1015.9mb 16f
4:40am 11 18 mph 1015.9mb 16f
4:30am 11 20 mph 1015.6mb 16f
4:20am 15 21 mph 1015.6mb 17f
4:10am 17 21 mph 1015.2mb 17f
4:00am 14 20 mph 1015.2mb 16f
3:50am 9 14 mph 1015.2mb 15f
3:40am 10 15 mph 1015.2mb 16f
3:30am 14 22 mph 1015.2mb 17f
3:20am 11 22 mph 1015.2mb 17f
3:10am 15 20 mph 1014.9mb 17f
3:00am 8 18 mph 1014.9mb 16f
2:50am 8 21 mph 1014.6mb 16f
2:40am 14 22 mph 1014.6mb 17f
2:30am 15 17 mph 1014.6mb 17f
2:20am 13 17 mph 1014.6mb 16f
2:10am 14 18 mph 1014.2mb 17f
2:00am 7 14 mph 1014.2mb 16f
1:50am 8 14 mph 1014.2mb 16f
1:40am 7 16 mph 1014.2mb 16f
1:30am 8 14 mph 1013.9mb 17f
1:20am 8 14 mph 1013.5mb 16f
1:10am 8 11 mph 1013.9mb 16f
1:00am 8 13 mph 1013.5mb 16f
12:50am 8 14 mph 1013.5mb 17f
12:40am 7 14 mph 1013.2mb 17f
12:30am 9 15 mph 1013.2mb 17f
12:20am 9 14 mph 1012.9mb 17f
12:10am 11 16 mph 1012.9mb 17f
12:00am 9 13 mph 1012.5mb 17f
Sat 01/24 11:50pm 9 15 mph 1012.5mb 17f
11:40pm 9 15 mph 1012.2mb 18f
11:30pm 9 15 mph 1012.2mb 18f
11:20pm 11 17 mph 1011.9mb 18f
11:10pm 9 15 mph 1011.9mb 18f
11:00pm 10 16 mph 1011.5mb 18f
10:50pm 8 15 mph 1011.2mb 18f
10:40pm 9 16 mph 1011.2mb 18f
10:30pm 10 16 mph 1010.8mb 19f
10:20pm 7 15 mph 1010.8mb 19f
10:10pm 8 17 mph 1010.5mb 19f
10:00pm 13 18 mph 1010.2mb 19f
9:50pm 15 18 mph 1010.2mb 19f
9:40pm 11 15 mph 1010.2mb 19f
9:30pm 8 10 mph 1009.8mb 19f
9:20pm 7 9 mph 1009.8mb 18f
9:10pm 6 9 mph 1009.8mb 18f
9:00pm 6 8 mph 1009.5mb 17f
8:50pm 5 6 mph 1009.8mb 17f
8:40pm 3 5 mph 1009.5mb 17f
8:30pm 1 5 mph 1009.8mb 17f
8:20pm 3 6 mph 1009.8mb 17f
8:10pm 5 6 mph 1009.8mb 17f
8:00pm 2 6 mph 1009.8mb 17f
7:50pm 2 6 mph 1009.8mb 17f
7:40pm 5 7 mph 1009.8mb 17f
7:30pm 5 7 mph 1009.8mb 18f
7:20pm 6 8 mph 1009.5mb 18f
7:10pm 6 8 mph 1009.5mb 18f
7:00pm 7 9 mph 1009.5mb 18f
6:50pm 5 8 mph 1009.1mb 17f
6:40pm 7 9 mph 1009.1mb 17f
6:30pm 5 10 mph 1009.1mb 17f
6:20pm 2 9 mph 1009.1mb 17f
6:10pm 7 13 mph 1008.8mb 18f
6:00pm 8 15 mph 1008.8mb 18f
5:50pm 8 14 mph 1008.8mb 18f
5:40pm 7 16 mph 1008.5mb 18f
5:30pm 10 14 mph 1008.1mb 18f
5:20pm 9 13 mph 1008.1mb 18f
5:10pm 9 17 mph 1008.1mb 18f
5:00pm 11 16 mph 1007.8mb 18f
4:50pm 7 11 mph 1007.8mb 18f
4:40pm 9 11 mph 1007.8mb 18f
4:30pm 8 14 mph 1007.5mb 18f
4:20pm 9 14 mph 1007.1mb 19f
4:10pm 7 14 mph 1007.1mb 19f
4:00pm 7 13 mph 1006.8mb 19f
3:50pm 10 18 mph 1006.4mb 19f
3:40pm 8 16 mph 1006.4mb 19f
3:30pm 10 16 mph 1006.1mb 20f
3:20pm 11 15 mph 1006.1mb 19f
3:10pm 8 13 mph 1005.8mb 20f
3:00pm 7 15 mph 1005.4mb 20f
2:50pm 11 15 mph 1005.4mb 20f
2:40pm 10 17 mph 1005.4mb 20f
2:30pm 10 15 mph 1005.1mb 20f
2:20pm 10 16 mph 1005.1mb 21f
2:10pm 10 18 mph 1004.7mb 22f
2:00pm 11 15 mph 1004.4mb 22f
1:50pm 9 15 mph 1004.4mb 22f
1:40pm 8 13 mph 1004.4mb 22f
1:30pm 8 15 mph 1004.4mb 22f
1:20pm 10 15 mph 1004.4mb 22f
1:10pm 8 15 mph 1004.4mb 22f
1:00pm 11 18 mph 1004.4mb 22f
12:50pm 11 17 mph 1004.1mb 22f
12:40pm 9 16 mph 1004.1mb 22f
12:30pm 8 15 mph 1004.1mb 22f
12:20pm 10 16 mph 1004.4mb 22f
12:10pm 11 17 mph 1004.1mb 22f
12:00pm 13 17 mph 1004.1mb 23f
11:50am 11 18 mph 1004.1mb 22f
11:40am 11 18 mph 1004.1mb 23f
11:30am 11 18 mph 1004.1mb 23f
11:20am 13 17 mph 1004.1mb 23f
11:10am 13 20 mph 1004.1mb 24f
11:00am 11 17 mph 1004.1mb 24f
10:50am 14 21 mph 1004.1mb 24f
10:40am 9 22 mph 1003.7mb 25f
10:30am 11 20 mph 1003.7mb 25f
10:20am 11 21 mph 1003.7mb 26f
10:10am 13 21 mph 1003.4mb 26f
10:00am 11 18 mph 1003.4mb 26f
9:50am 11 17 mph 1003.4mb 27f
9:40am 11 17 mph 1003.4mb 27f
9:30am 10 16 mph 1003mb 28f
9:20am 11 17 mph 1002.7mb 28f
9:10am 11 18 mph 1002.7mb 29f
9:00am 11 15 mph 1002.7mb 29f
8:50am 9 13 mph 1002.7mb 30f
8:40am 8 13 mph 1002.4mb 31f
8:30am 10 15 mph 1002mb 31f
8:20am 5 7 mph 1002mb 32f
8:10am 5 8 mph 1002mb 32f
8:00am 9 11 mph 1002mb 32f
7:50am 10 11 mph 1002mb 32f
7:40am 8 13 mph 1002mb 33f
7:30am 9 15 mph 1002mb 34f
7:20am 8 15 mph 1001.7mb 36f
7:10am 8 13 mph 1001.7mb 36f
7:00am 8 10 mph 1001.4mb 36f
6:50am 8 11 mph 1001.7mb 36f
6:40am 6 11 mph 1001.4mb 36f
6:30am 7 11 mph 1001.7mb 36f
6:20am 7 11 mph 1001.4mb 36f
6:10am 6 9 mph 1001.4mb 36f
6:00am 6 10 mph 1001.4mb 35f
5:50am 7 9 mph 1001.4mb 35f
5:40am 6 9 mph 1001.4mb 35f
5:30am 6 11 mph 1001.4mb 35f
5:20am 7 11 mph 1001.4mb 36f
5:10am 7 14 mph 1001.4mb 36f
5:00am 9 14 mph 1001.4mb 36f
4:50am 10 16 mph 1001.4mb 36f
4:40am 10 16 mph 1001.4mb 36f
4:30am 11 17 mph 1001.4mb 36f
4:20am 11 17 mph 1001mb 36f
4:10am 11 16 mph 1001mb 36f
4:00am 9 15 mph 1001mb 36f
3:50am 8 13 mph 1001mb 36f
3:40am 8 14 mph 1001.4mb 36f
3:30am 8 13 mph 1001.4mb 36f
3:20am 6 10 mph 1001.4mb 35f
3:10am 6 9 mph 1001.4mb 35f
3:00am 6 10 mph 1001.7mb 35f
2:50am 6 8 mph 1001.7mb 35f
2:40am 6 10 mph 1001.7mb 35f
2:30am 5 8 mph 1001.7mb 35f
2:20am 6 9 mph 1001.7mb 35f
2:10am 5 9 mph 1002mb 35f
2:00am 5 10 mph 1002mb 35f
1:50am 6 11 mph 1002mb 35f
1:40am 7 11 mph 1002mb 35f
1:30am 5 8 mph 1002mb 35f
1:20am 6 10 mph 1002.4mb 35f
1:10am 5 10 mph 1002.4mb 35f
1:00am 6 9 mph 1002.4mb 35f
12:50am 6 14 mph 1002.7mb 35f
12:40am 8 14 mph 1002.7mb 36f
12:30am 10 15 mph 1002.7mb 37f
12:20am 8 17 mph 1002.7mb 37f
12:10am 7 15 mph 1003mb 37f
12:00am 9 14 mph 1003mb 37f
Fri 01/23 11:50pm 8 13 mph 1003mb 37f
11:40pm 11 16 mph 1003mb 37f
11:30pm 8 15 mph 1003mb 37f
11:20pm 10 15 mph 1003mb 37f
11:10pm 9 16 mph 1003mb 37f
11:00pm 7 15 mph 1003.4mb 37f
10:50pm 9 15 mph 1003.4mb 37f
10:40pm 9 16 mph 1003.4mb 37f
10:30pm 10 15 mph 1003.4mb 37f
10:20pm 9 16 mph 1003.4mb 37f
10:10pm 9 16 mph 1003.4mb 37f
10:00pm 10 17 mph 1003.4mb 37f
9:50pm 8 11 mph 1003.7mb 37f
9:40pm 7 13 mph 1003.7mb 37f
9:30pm 7 10 mph 1003.7mb 37f
9:20pm 6 14 mph 1004.1mb 37f
9:10pm 7 14 mph 1004.1mb 38f
9:00pm 5 9 mph 1004.1mb 37f
8:50pm 5 9 mph 1004.1mb 37f
8:40pm 3 8 mph 1004.1mb 37f
8:30pm 5 8 mph 1004.4mb 37f
8:20pm 5 8 mph 1004.4mb 37f
8:10pm 5 8 mph 1004.7mb 37f
8:00pm 6 13 mph 1004.7mb 37f
7:50pm 6 14 mph 1004.7mb 37f
7:40pm 6 11 mph 1005.1mb 37f
7:30pm 7 14 mph 1005.1mb 37f
7:20pm 7 11 mph 1005.1mb 37f
7:10pm 9 14 mph 1005.1mb 37f
7:00pm 9 15 mph 1005.4mb 37f
6:50pm 7 11 mph 1005.4mb 36f
6:40pm 6 9 mph 1005.4mb 36f
6:30pm 7 11 mph 1005.4mb 35f
6:20pm 8 14 mph 1005.4mb 35f
6:10pm 8 16 mph 1005.4mb 35f
6:00pm 11 15 mph 1005.1mb 35f
5:50pm 9 17 mph 1005.4mb 36f
5:40pm 14 21 mph 1005.4mb 36f
5:30pm 10 18 mph 1005.4mb 37f
5:20pm 9 21 mph 1005.4mb 36f
5:10pm 11 17 mph 1005.4mb 37f
5:00pm 11 18 mph 1005.4mb 37f
4:50pm 11 24 mph 1005.4mb 37f
4:40pm 10 24 mph 1005.4mb 37f
4:30pm 14 22 mph 1005.4mb 37f
4:20pm 11 21 mph 1005.4mb 37f
4:10pm 14 18 mph 1005.4mb 37f
4:00pm 13 22 mph 1005.8mb 37f
3:50pm 13 21 mph 1005.8mb 37f
3:40pm 11 20 mph 1005.8mb 37f
3:30pm 11 21 mph 1005.8mb 37f
3:20pm 10 23 mph 1005.8mb 37f
3:10pm 13 20 mph 1005.8mb 37f
3:00pm 13 18 mph 1005.8mb 37f
2:50pm 13 20 mph 1005.8mb 37f
2:40pm 11 20 mph 1005.8mb 37f
2:30pm 11 21 mph 1005.4mb 37f
2:20pm 11 23 mph 1005.4mb 37f
2:10pm 14 22 mph 1005.1mb 37f
2:00pm 13 20 mph 1005.1mb 37f
1:50pm 9 17 mph 1005.4mb 37f
1:40pm 11 20 mph 1005.4mb 37f
1:30pm 11 20 mph 1005.4mb 37f
1:20pm 10 21 mph 1005.4mb 38f
1:10pm 11 24 mph 1005.8mb 38f
1:00pm 11 18 mph 1005.4mb 38f
12:50pm 10 18 mph 1005.8mb 38f
12:40pm 13 24 mph 1005.8mb 38f
12:30pm 10 17 mph 1006.1mb 38f
12:20pm 11 21 mph 1006.1mb 38f
12:10pm 11 20 mph 1006.1mb 38f
12:00pm 8 21 mph 1006.1mb 38f
11:50am 11 21 mph 1006.1mb 38f
11:40am 17 23 mph 1006.1mb 38f
11:30am 14 22 mph 1006.1mb 37f
11:20am 14 21 mph 1006.4mb 37f
11:10am 11 21 mph 1006.4mb 36f
11:00am 11 26 mph 1006.4mb 36f
10:50am 11 21 mph 1006.4mb 36f
10:40am 14 24 mph 1006.4mb 36f
10:30am 16 24 mph 1006.4mb 36f
10:20am 11 22 mph 1006.4mb 36f
10:10am 13 24 mph 1006.8mb 36f
10:00am 14 25 mph 1006.4mb 36f
9:50am 15 26 mph 1006.4mb 35f
9:40am 15 28 mph 1006.8mb 35f
9:30am 13 21 mph 1006.8mb 35f
9:20am 15 22 mph 1006.4mb 35f
9:10am 11 23 mph 1006.8mb 35f
9:00am 11 18 mph 1006.8mb 35f
8:50am 9 20 mph 1006.8mb 34f
8:40am 10 17 mph 1007.1mb 34f
8:30am 7 14 mph 1007.1mb 34f
8:20am 8 13 mph 1007.1mb 34f
8:10am 8 15 mph 1007.1mb 34f
8:00am 9 14 mph 1007.1mb 34f
7:50am 7 10 mph 1007.5mb 33f
7:40am 5 8 mph 1007.8mb 33f
7:30am 5 7 mph 1007.8mb 33f
7:20am 3 7 mph 1007.8mb 33f
7:10am 6 9 mph 1008.1mb 33f
7:00am 5 14 mph 1007.8mb 33f
6:50am 6 10 mph 1007.8mb 33f
6:40am 7 13 mph 1007.8mb 33f
6:30am 5 17 mph 1007.5mb 33f
6:20am 6 10 mph 1007.8mb 33f
6:10am 5 14 mph 1007.5mb 33f
6:00am 5 11 mph 1007.8mb 32f
5:50am 7 14 mph 1008.1mb 32f
5:40am 7 11 mph 1008.1mb 32f
5:30am 6 13 mph 1008.1mb 32f
5:20am 6 13 mph 1008.5mb 32f
5:10am 6 15 mph 1008.5mb 32f
5:00am 8 16 mph 1008.8mb 32f
4:50am 8 16 mph 1008.8mb 31f
4:40am 8 20 mph 1008.8mb 31f
4:30am 10 20 mph 1008.8mb 31f
4:20am 10 20 mph 1009.1mb 30f
4:10am 8 24 mph 1009.1mb 30f
4:00am 9 17 mph 1009.5mb 30f
3:50am 11 20 mph 1009.8mb 30f
3:40am 8 17 mph 1010.2mb 30f
3:30am 13 18 mph 1010.2mb 30f
3:20am 13 20 mph 1010.2mb 29f
3:10am 9 18 mph 1010.2mb 29f
3:00am 11 21 mph 1010.5mb 29f
2:50am 16 22 mph 1010.8mb 29f
2:40am 15 24 mph 1010.8mb 29f
2:30am 11 26 mph 1010.8mb 29f
2:20am 13 22 mph 1010.8mb 29f
2:10am 11 25 mph 1010.8mb 29f
2:00am 15 29 mph 1011.2mb 29f
1:50am 14 24 mph 1011.5mb 29f
1:40am 11 23 mph 1011.5mb 29f
1:30am 11 22 mph 1011.5mb 29f
1:20am 10 24 mph 1011.9mb 29f
1:10am 9 25 mph 1012.2mb 29f
1:00am 15 22 mph 1012.2mb 29f
12:50am 13 22 mph 1012.2mb 29f
12:40am 11 22 mph 1012.5mb 29f
12:30am 13 23 mph 1012.5mb 29f
12:20am 14 28 mph 1012.5mb 29f
12:10am 10 20 mph 1012.9mb 29f
12:00am 14 23 mph 1012.9mb 29f
Thu 01/22 11:50pm 15 22 mph 1012.9mb 29f
11:40pm 13 22 mph 1013.2mb 29f
11:30pm 10 23 mph 1013.2mb 29f
11:20pm 15 21 mph 1013.2mb 29f
11:10pm 11 25 mph 1013.2mb 29f
11:00pm 10 18 mph 1013.5mb 29f
10:50pm 11 22 mph 1013.9mb 29f
10:40pm 10 18 mph 1013.9mb 29f
10:30pm 13 20 mph 1013.9mb 29f
10:20pm 10 20 mph 1014.2mb 29f
10:10pm 9 20 mph 1014.2mb 29f
10:00pm 9 21 mph 1014.6mb 29f
9:50pm 10 22 mph 1014.9mb 30f
9:40pm 9 24 mph 1014.9mb 30f
9:30pm 10 21 mph 1014.9mb 30f
9:20pm 11 23 mph 1015.2mb 30f
9:10pm 10 18 mph 1015.6mb 30f
9:00pm 9 22 mph 1015.9mb 30f
8:50pm 10 22 mph 1015.9mb 31f
8:40pm 10 17 mph 1015.9mb 31f
8:30pm 8 20 mph 1016.3mb 31f
8:20pm 11 24 mph 1016.6mb 31f
8:10pm 8 14 mph 1016.9mb 31f
8:00pm 7 15 mph 1016.9mb 31f
7:50pm 8 15 mph 1017.3mb 32f
7:40pm 7 14 mph 1017.3mb 32f
7:30pm 6 14 mph 1017.6mb 32f
7:20pm 6 14 mph 1017.6mb 32f
7:10pm 8 14 mph 1017.6mb 32f
7:00pm 7 15 mph 1017.9mb 32f
6:50pm 6 14 mph 1018.3mb 32f
6:40pm 7 14 mph 1018.6mb 32f
6:30pm 6 14 mph 1018.6mb 32f
6:20pm 7 13 mph 1019mb 32f
6:10pm 7 13 mph 1019mb 32f
6:00pm 6 10 mph 1019.3mb 32f
5:50pm 6 11 mph 1019.3mb 32f
5:40pm 6 10 mph 1019.3mb 32f
5:30pm 6 10 mph 1019.6mb 32f
5:20pm 6 10 mph 1019.6mb 32f
5:10pm 3 9 mph 1019.6mb 32f
5:00pm 5 8 mph 1020.3mb 32f
4:50pm 2 9 mph 1020.3mb 32f
4:40pm 3 7 mph 1020.7mb 32f
4:30pm 5 9 mph 1020.7mb 32f
4:20pm 6 9 mph 1021mb 33f
4:10pm 5 10 mph 1021mb 32f
4:00pm 5 9 mph 1021mb 32f
3:50pm 3 7 mph 1021.3mb 33f
3:40pm 5 8 mph 1021.3mb 33f
3:30pm 3 9 mph 1021.7mb 33f
3:20pm 3 9 mph 1021.7mb 33f
3:10pm 6 13 mph 1021.7mb 33f
3:00pm 6 10 mph 1022mb 33f
2:50pm 5 11 mph 1022.4mb 32f
2:40pm 7 11 mph 1022.4mb 32f
2:30pm 7 14 mph 1022.4mb 32f
2:20pm 5 10 mph 1022.7mb 32f
2:10pm 2 10 mph 1022.7mb 33f
2:00pm 5 9 mph 1022.7mb 32f
1:50pm 3 11 mph 1023mb 32f
1:40pm 6 8 mph 1023mb 30f
1:30pm 3 11 mph 1023mb 31f
1:20pm 5 14 mph 1023.4mb 30f
1:10pm 7 11 mph 1023.4mb 30f
1:00pm 5 11 mph 1023.4mb 30f
12:50pm 6 11 mph 1023.7mb 29f
12:40pm 5 13 mph 1023.7mb 29f
12:30pm 8 13 mph 1024mb 28f
12:20pm 8 13 mph 1024.4mb 28f
12:10pm 3 10 mph 1024.4mb 29f
12:00pm 7 13 mph 1024.7mb 28f
11:50am 8 14 mph 1025.1mb 27f
11:40am 8 13 mph 1025.4mb 27f
11:30am 6 10 mph 1025.4mb 26f
11:20am 7 13 mph 1025.4mb 26f
11:10am 10 15 mph 1025.7mb 26f